Terug naar catalogus

STARLINK-3343

ActiefCommunicatieVLEO
NORAD 50822·PAYLOAD·🇺🇸 United States

Gelanceerd Jan 6, 2022 vanaf Cape Canaveral Space Force Station

Loading…

Volgende Passages (komende 24 uur)

TLE

VersSource: CelesTrak SupGP

Epoch: Sep 15, 2026, 00:37 UTC

1 50822C 22001V   26258.02618056 -.00045797  00000+0 -14727-2 0  2587
2 50822  53.1602  29.2568 0001049  81.1872 194.7832 15.31724627    12

Volg STARLINK-3343 in realtime met AllMySat

Download on the App Store